Regional Weather Roundup
Issued by NWS

Home | Current Version | Previous Version | Graphics & Text | Print | Product List | Glossary On
Versions: 1 2 3 4 5 6 7 8 9 10 11 12 13 14 15 16 17 18 19 20 21 22 23 24 25 26 27 28 29 30 31 32 33 34 35 36 37 38 39 40 41 42 43 44 45 46 47 48 49 50
000
ASUS45 KCYS 280510
RWRWY

WYOMING REGIONAL WEATHER ROUNDUP
NATIONAL WEATHER SERVICE CHEYENNE WY
1100 PM MDT FRI MAY 27 2016

NOTE:  "FAIR" INDICATES FEW OR NO CLOUDS BELOW 12,000 FEET
WITH NO SIGNIFICANT WEATHER AND/OR OBSTRUCTIONS TO VISIBILITY.

WYZ001-280600-
YELLOWSTONE NATIONAL PARK

CITY           SKY/WX    TMP DP  RH WIND       PRES   REMARKS
LK YELLOWSTONE   N/A     37  34  89 CALM      30.05R
W YELLOWSTONE  NOT AVBL

$$
WYZ002>013-054>058-071-098>099-280600-
NORTHERN WYOMING

CITY           SKY/WX    TMP DP  RH WIND       PRES   REMARKS
JACKSON        CLOUDY    48  32  53 W6        29.99R
CODY           MOCLDY    50  46  87 SE6       29.92S
GREYBULL       FAIR      56  47  71 W12       29.88F
WORLAND        CLOUDY    54  49  83 CALM      29.90R
SHERIDAN       CLOUDY    51  45  79 W10       29.92R
BUFFALO        FAIR      51  41  68 NW17G28   29.93R
GILLETTE       FAIR      42  38  85 SW5       29.88S
HULETT         FAIR      46  43  87 SW6       29.89S
NEWCASTLE      FAIR      50  41  71 E6        29.90S

$$
WYZ014>020-022>026-101>103-280600-
CENTRAL WYOMING

CITY           SKY/WX    TMP DP  RH WIND       PRES   REMARKS
BIG PINEY      FAIR      39  35  86 W6        30.02S WCI  35
PINEDALE       FAIR      36  34  93 NW5       30.03S WCI  32
DUBOIS         FAIR      43  30  61 NW10      29.99S
LANDER         FAIR      51  37  58 W9        29.91F
RIVERTON       CLOUDY    54  41  61 E9        29.93R
CASPER         FAIR      45  40  82 SW7       29.91F
DOUGLAS          N/A    N/A N/A N/A MISG      29.92S

$$
WYZ021-027>030-104>119-280600-
SOUTHERN WYOMING

CITY           SKY/WX    TMP DP  RH WIND       PRES   REMARKS
EVANSTON       CLOUDY    48  35  60 W6        30.05S
KEMMERER         N/A     43  32  65 W3        30.05S
FORT BRIDGER   CLEAR     45  36  70 W9        30.07R
ROCK SPRINGS   FAIR      46  36  68 W9        30.02R
DIXON          MOCLDY    43  40  90 CALM      30.08R
RAWLINS        CLOUDY    47  37  68 SW12      30.02R
SARATOGA       MOCLDY    45  37  76 W12       30.05S
LARAMIE        FAIR      37  35  92 W5        30.01F WCI  33
CHEYENNE       FAIR      44  38  79 W8        29.96F
TORRINGTON     FAIR      49  46  90 W3        29.89F
PINE BLUFFS    FAIR      41  41 100 W7        29.95F

$$



USA.gov is the U.S. government's official web portal to all federal, state and local government web resources and services.